Time,TemperatureF,DewpointF,PressureIn,WindDirection,WindDirectionDegrees,WindSpeedMPH,WindSpeedGustMPH,Humidity,HourlyPrecipIn,Conditions,Clouds,dailyrainin,SolarRadiationWatts/m^2,SoftwareType,DateUTC
2013-03-15 00:22:00,44.0,43.0,-100.00,SSE,151,8.0,9.0,98,0.00,,,0.00,0.000000,,2013-03-15 05:22:00,
2013-03-15 00:32:00,44.0,43.0,-100.00,SSE,151,8.0,9.0,98,0.00,,,0.00,0.000000,,2013-03-15 05:32:00,
2013-03-15 00:42:00,44.0,43.0,-100.00,SSE,151,8.0,9.0,98,0.00,,,0.00,0.000000,,2013-03-15 05:42:00,
2013-03-15 00:52:00,44.0,43.0,-100.00,SSE,151,8.0,9.0,98,0.00,,,0.00,0.000000,,2013-03-15 05:52:00,
2013-03-15 01:22:00,40.0,40.0,-100.00,South,179,7.0,9.0,99,0.00,,,0.00,0.000000,,2013-03-15 06:22:00,
2013-03-15 01:32:00,40.0,40.0,-100.00,South,179,7.0,9.0,99,0.00,,,0.00,0.000000,,2013-03-15 06:32:00,
2013-03-15 01:42:00,40.0,40.0,-100.00,South,179,7.0,9.0,99,0.00,,,0.00,0.000000,,2013-03-15 06:42:00,
2013-03-15 01:52:00,40.0,40.0,-100.00,South,179,7.0,9.0,99,0.00,,,0.00,0.000000,,2013-03-15 06:52:00,
2013-03-15 02:22:00,40.0,39.0,-100.00,South,186,8.0,11.0,95,0.00,,,0.00,0.000000,,2013-03-15 07:22:00,
2013-03-15 02:32:00,40.0,39.0,-100.00,South,186,8.0,11.0,95,0.00,,,0.00,0.000000,,2013-03-15 07:32:00,
2013-03-15 02:42:00,40.0,39.0,-100.00,South,186,8.0,11.0,95,0.00,,,0.00,0.000000,,2013-03-15 07:42:00,
2013-03-15 02:52:00,40.0,39.0,-100.00,South,186,8.0,11.0,95,0.00,,,0.00,0.000000,,2013-03-15 07:52:00,
2013-03-15 03:23:00,43.0,41.0,-100.00,South,182,9.0,11.0,93,0.00,,,0.00,0.000000,,2013-03-15 08:23:00,
2013-03-15 03:33:00,43.0,41.0,-100.00,South,182,9.0,11.0,93,0.00,,,0.00,0.000000,,2013-03-15 08:33:00,
2013-03-15 03:42:00,43.0,41.0,-100.00,South,182,9.0,11.0,93,0.00,,,0.00,0.000000,,2013-03-15 08:42:00,
2013-03-15 03:52:00,43.0,41.0,-100.00,South,182,9.0,11.0,93,0.00,,,0.00,0.000000,,2013-03-15 08:52:00,
2013-03-15 04:22:00,37.0,37.0,-100.00,SSW,195,7.0,9.0,99,0.00,,,0.00,0.000000,,2013-03-15 09:22:00,
2013-03-15 04:33:00,37.0,37.0,-100.00,SSW,195,7.0,9.0,99,0.00,,,0.00,0.000000,,2013-03-15 09:33:00,
2013-03-15 04:43:00,37.0,37.0,-100.00,SSW,195,7.0,9.0,99,0.00,,,0.00,0.000000,,2013-03-15 09:43:00,
2013-03-15 04:52:00,37.0,37.0,-100.00,SSW,195,7.0,9.0,99,0.00,,,0.00,0.000000,,2013-03-15 09:52:00,
2013-03-15 05:23:00,40.0,38.0,-100.00,South,186,8.0,10.0,94,0.00,,,0.00,0.000000,,2013-03-15 10:23:00,
2013-03-15 05:33:00,40.0,38.0,-100.00,South,186,8.0,10.0,94,0.00,,,0.00,0.000000,,2013-03-15 10:33:00,
2013-03-15 05:42:00,40.0,38.0,-100.00,South,186,8.0,10.0,94,0.00,,,0.00,0.000000,,2013-03-15 10:42:00,
2013-03-15 05:52:00,40.0,38.0,-100.00,South,186,8.0,10.0,94,0.00,,,0.00,0.000000,,2013-03-15 10:52:00,
2013-03-15 06:22:00,39.0,38.0,-100.00,SSW,194,8.0,10.0,96,0.00,,,0.00,0.000000,,2013-03-15 11:22:00,
2013-03-15 06:32:00,39.0,38.0,-100.00,SSW,194,8.0,10.0,96,0.00,,,0.00,0.000000,,2013-03-15 11:32:00,
2013-03-15 06:42:00,39.0,38.0,-100.00,SSW,194,8.0,10.0,96,0.00,,,0.00,0.000000,,2013-03-15 11:42:00,
2013-03-15 06:52:00,39.0,38.0,-100.00,SSW,194,8.0,10.0,96,0.00,,,0.00,0.000000,,2013-03-15 11:52:00,
2013-03-15 07:23:00,40.0,40.0,-100.00,South,170,10.0,11.0,100,0.00,,,0.00,0.000000,,2013-03-15 12:23:00,
2013-03-15 07:32:00,40.0,40.0,-100.00,South,170,10.0,11.0,100,0.00,,,0.00,0.000000,,2013-03-15 12:32:00,
2013-03-15 07:42:00,40.0,40.0,-100.00,South,170,10.0,11.0,100,0.00,,,0.00,0.000000,,2013-03-15 12:42:00,
2013-03-15 07:52:00,40.0,40.0,-100.00,South,170,10.0,11.0,100,0.00,,,0.00,0.000000,,2013-03-15 12:52:00,
2013-03-15 08:22:00,40.0,39.0,-100.00,SW,218,6.0,11.0,95,0.00,,,0.00,1.000000,,2013-03-15 13:22:00,
2013-03-15 08:32:00,40.0,39.0,-100.00,SW,218,6.0,11.0,95,0.00,,,0.00,1.000000,,2013-03-15 13:32:00,
2013-03-15 08:42:00,40.0,39.0,-100.00,SW,218,6.0,11.0,95,0.00,,,0.00,1.000000,,2013-03-15 13:42:00,
2013-03-15 08:52:00,40.0,39.0,-100.00,SW,218,6.0,11.0,95,0.00,,,0.00,1.000000,,2013-03-15 13:52:00,
2013-03-15 09:22:00,46.0,41.0,-100.00,SW,232,11.0,14.0,83,0.00,,,0.00,82.000000,,2013-03-15 14:22:00,
2013-03-15 09:32:00,46.0,41.0,-100.00,SW,232,11.0,14.0,83,0.00,,,0.00,82.000000,,2013-03-15 14:32:00,
2013-03-15 09:42:00,46.0,41.0,-100.00,SW,232,11.0,14.0,83,0.00,,,0.00,82.000000,,2013-03-15 14:42:00,
2013-03-15 09:52:00,46.0,41.0,-100.00,SW,232,11.0,14.0,83,0.00,,,0.00,82.000000,,2013-03-15 14:52:00,
2013-03-15 10:23:00,54.0,43.0,-100.00,WSW,254,11.0,15.0,67,0.00,,,0.00,277.000000,,2013-03-15 15:23:00,
2013-03-15 10:33:00,54.0,43.0,-100.00,WSW,254,11.0,15.0,67,0.00,,,0.00,277.000000,,2013-03-15 15:33:00,
2013-03-15 10:42:00,54.0,43.0,-100.00,WSW,254,11.0,15.0,67,0.00,,,0.00,277.000000,,2013-03-15 15:42:00,
2013-03-15 10:52:00,54.0,43.0,-100.00,WSW,254,11.0,15.0,67,0.00,,,0.00,277.000000,,2013-03-15 15:52:00,
2013-03-15 11:23:00,61.0,36.0,-100.00,West,281,13.0,17.0,40,0.00,,,0.00,506.000000,,2013-03-15 16:23:00,
2013-03-15 11:32:00,61.0,36.0,-100.00,West,281,13.0,17.0,40,0.00,,,0.00,506.000000,,2013-03-15 16:32:00,
2013-03-15 11:42:00,61.0,36.0,-100.00,West,281,13.0,17.0,40,0.00,,,0.00,506.000000,,2013-03-15 16:42:00,
2013-03-15 11:52:00,61.0,36.0,-100.00,West,281,13.0,17.0,40,0.00,,,0.00,506.000000,,2013-03-15 16:52:00,
2013-03-15 12:22:00,67.0,41.0,-100.00,WNW,283,8.0,15.0,38,0.00,,,0.00,708.000000,,2013-03-15 17:22:00,
2013-03-15 12:32:00,67.0,41.0,-100.00,WNW,283,8.0,15.0,38,0.00,,,0.00,708.000000,,2013-03-15 17:32:00,
2013-03-15 12:42:00,67.0,41.0,-100.00,WNW,283,8.0,15.0,38,0.00,,,0.00,708.000000,,2013-03-15 17:42:00,
2013-03-15 12:52:00,67.0,41.0,-100.00,WNW,283,8.0,15.0,38,0.00,,,0.00,708.000000,,2013-03-15 17:52:00,
2013-03-15 13:22:00,74.0,39.0,-100.00,SSW,209,3.0,12.0,28,0.00,,,0.00,777.000000,,2013-03-15 18:22:00,
2013-03-15 13:32:00,74.0,39.0,-100.00,SSW,209,3.0,12.0,28,0.00,,,0.00,777.000000,,2013-03-15 18:32:00,
2013-03-15 13:42:00,74.0,39.0,-100.00,SSW,209,3.0,12.0,28,0.00,,,0.00,777.000000,,2013-03-15 18:42:00,
2013-03-15 13:52:00,74.0,39.0,-100.00,SSW,209,3.0,12.0,28,0.00,,,0.00,777.000000,,2013-03-15 18:52:00,
2013-03-15 14:22:00,77.0,38.0,-100.00,East,90,4.0,8.0,25,0.00,,,0.00,844.000000,,2013-03-15 19:22:00,
2013-03-15 14:32:00,77.0,38.0,-100.00,East,90,4.0,8.0,25,0.00,,,0.00,844.000000,,2013-03-15 19:32:00,
2013-03-15 14:42:00,77.0,38.0,-100.00,East,90,4.0,8.0,25,0.00,,,0.00,844.000000,,2013-03-15 19:42:00,
2013-03-15 14:52:00,77.0,38.0,-100.00,East,90,4.0,8.0,25,0.00,,,0.00,844.000000,,2013-03-15 19:52:00,
2013-03-15 15:22:00,74.0,36.0,-100.00,NE,41,5.0,11.0,25,0.00,,,-99.99,588.000000,,2013-03-15 20:22:00,
2013-03-15 15:32:00,74.0,36.0,-100.00,NE,41,5.0,11.0,25,0.00,,,-99.99,588.000000,,2013-03-15 20:32:00,
2013-03-15 15:42:00,74.0,36.0,-100.00,NE,41,5.0,11.0,25,0.00,,,-99.99,588.000000,,2013-03-15 20:42:00,
2013-03-15 15:52:00,74.0,36.0,-100.00,NE,41,5.0,11.0,25,0.00,,,-99.99,588.000000,,2013-03-15 20:52:00,
2013-03-15 16:22:00,76.0,39.0,-100.00,ENE,67,6.0,10.0,26,0.00,,,0.00,566.000000,,2013-03-15 21:22:00,
2013-03-15 16:33:00,76.0,39.0,-100.00,ENE,67,6.0,10.0,26,0.00,,,0.00,566.000000,,2013-03-15 21:33:00,
2013-03-15 16:43:00,76.0,39.0,-100.00,ENE,67,6.0,10.0,26,0.00,,,0.00,566.000000,,2013-03-15 21:43:00,
2013-03-15 16:52:00,76.0,39.0,-100.00,ENE,67,6.0,10.0,26,0.00,,,0.00,566.000000,,2013-03-15 21:52:00,
2013-03-15 17:22:00,76.0,38.0,-100.00,ENE,64,7.0,12.0,25,0.00,,,0.00,575.000000,,2013-03-15 22:22:00,
2013-03-15 17:32:00,76.0,38.0,-100.00,ENE,64,7.0,12.0,25,0.00,,,0.00,575.000000,,2013-03-15 22:32:00,
2013-03-15 17:42:00,76.0,38.0,-100.00,ENE,64,7.0,12.0,25,0.00,,,0.00,575.000000,,2013-03-15 22:42:00,
2013-03-15 17:52:00,76.0,38.0,-100.00,ENE,64,7.0,12.0,25,0.00,,,0.00,575.000000,,2013-03-15 22:52:00,
2013-03-15 18:22:00,72.0,42.0,-100.00,ENE,70,11.0,14.0,34,0.00,,,0.00,341.000000,,2013-03-15 23:22:00,
2013-03-15 18:32:00,72.0,42.0,-100.00,ENE,70,11.0,14.0,34,0.00,,,0.00,341.000000,,2013-03-15 23:32:00,
2013-03-15 18:42:00,72.0,42.0,-100.00,ENE,70,11.0,14.0,34,0.00,,,0.00,341.000000,,2013-03-15 23:42:00,
2013-03-15 18:52:00,72.0,42.0,-100.00,ENE,70,11.0,14.0,34,0.00,,,0.00,341.000000,,2013-03-15 23:52:00,
2013-03-15 19:22:00,65.0,43.0,-100.00,ENE,62,8.0,14.0,44,0.00,,,0.00,160.000000,,2013-03-16 00:22:00,
2013-03-15 19:32:00,65.0,43.0,-100.00,ENE,62,8.0,14.0,44,0.00,,,0.00,160.000000,,2013-03-16 00:32:00,
2013-03-15 19:42:00,65.0,43.0,-100.00,ENE,62,8.0,14.0,44,0.00,,,0.00,160.000000,,2013-03-16 00:42:00,
2013-03-15 19:52:00,65.0,43.0,-100.00,ENE,62,8.0,14.0,44,0.00,,,0.00,160.000000,,2013-03-16 00:52:00,
2013-03-15 20:22:00,56.0,44.0,-100.00,NE,42,8.0,14.0,63,0.00,,,0.00,24.000000,,2013-03-16 01:22:00,
2013-03-15 20:32:00,56.0,44.0,-100.00,NE,42,8.0,14.0,63,0.00,,,0.00,24.000000,,2013-03-16 01:32:00,
2013-03-15 20:42:00,56.0,44.0,-100.00,NE,42,8.0,14.0,63,0.00,,,0.00,24.000000,,2013-03-16 01:42:00,
2013-03-15 20:52:00,56.0,44.0,-100.00,NE,42,8.0,14.0,63,0.00,,,0.00,24.000000,,2013-03-16 01:52:00,
2013-03-15 21:23:00,52.0,46.0,-100.00,North,10,11.0,14.0,81,0.00,,,-99.99,0.000000,,2013-03-16 02:23:00,
2013-03-15 21:32:00,52.0,46.0,-100.00,North,10,11.0,14.0,81,0.00,,,-99.99,0.000000,,2013-03-16 02:32:00,
2013-03-15 21:42:00,52.0,46.0,-100.00,North,10,11.0,14.0,81,0.00,,,-99.99,0.000000,,2013-03-16 02:42:00,
2013-03-15 21:52:00,52.0,46.0,-100.00,North,10,11.0,14.0,81,0.00,,,-99.99,0.000000,,2013-03-16 02:52:00,
2013-03-15 22:22:00,51.0,49.0,-100.00,North,7,10.0,17.0,92,0.00,,,0.00,0.000000,,2013-03-16 03:22:00,
2013-03-15 22:32:00,51.0,49.0,-100.00,North,7,10.0,17.0,92,0.00,,,0.00,0.000000,,2013-03-16 03:32:00,
2013-03-15 22:43:00,51.0,49.0,-100.00,North,7,10.0,17.0,92,0.00,,,0.00,0.000000,,2013-03-16 03:43:00,
2013-03-15 22:52:00,51.0,49.0,-100.00,North,7,10.0,17.0,92,0.00,,,0.00,0.000000,,2013-03-16 03:52:00,
2013-03-15 23:23:00,47.0,45.0,-100.00,North,7,13.0,18.0,92,0.00,,,0.00,0.000000,,2013-03-16 04:23:00,
2013-03-15 23:33:00,47.0,45.0,-100.00,North,7,13.0,18.0,92,0.00,,,0.00,0.000000,,2013-03-16 04:33:00,
2013-03-15 23:43:00,47.0,45.0,-100.00,North,7,13.0,18.0,92,0.00,,,0.00,0.000000,,2013-03-16 04:43:00,
2013-03-15 23:52:00,47.0,45.0,-100.00,North,7,13.0,18.0,92,0.00,,,0.00,0.000000,,2013-03-16 04:52:00,